Erie, PA

6:22 PM EDT on October 22, 2019 (GMT -0400)
Erie International

Weather History for KERI - August, 2019

Change the Weather History Date:

Thursday, August 1, 2019

  Actual Average Record
Temperature  
Mean Temperature 73 °F 72 °F  
Max Temperature 81 °F 80 °F 95 °F (1917)
Min Temperature 64 °F 64 °F 50 °F (1960)
Degree Days  
Heating Degree Days 0 0  
Month to date heating degree days 0 0  
Since 1 June heating degree days 38 68  
Since 1 July heating degree days 0 7  
Cooling Degree Days 8 7  
Month to date cooling degree days 8 7  
Year to date cooling degree days 473 382  
Since 1 June cooling degree days 440 343  
Growing Degree Days 22 (Base 50)    
Moisture  
Dew Point 60 °F    
Average Humidity 65    
Maximum Humidity 87    
Minimum Humidity 42    
Precipitation  
Precipitation 0.00 in 0.12 in 0.59 in (1983)
Month to date precipitation 0.00 0.12  
Year to date precipitation 22.50 22.48  
Snow  
Snow 0.00 in 0.00 in - ()
Month to date snowfall 0.0 0.0  
Since 1 June snowfall 0.0 0.0  
Since 1 July snowfall 0.0 0.0  
Snow Depth 0.00 in    
Sea Level Pressure  
Sea Level Pressure 30.13 in    
Wind  
Wind Speed 5 mph (NE)    
Max Wind Speed 13 mph    
Max Gust Speed 16 mph    
Visibility 10 miles    
Events      
T = Trace of Precipitation, MM = Missing Value Source: NWS Daily Summary

Daily Weather History Graph

Daily Weather History Graph

Search for Another Location

Airport or City:

Astronomy

Aug. 01, 2019 Rise Set
Actual Time 6:13 AM EDT 8:39 PM EDT
Civil Twilight 5:42 AM EDT 9:11 PM EDT
Nautical Twilight 5:02 AM EDT 9:50 PM EDT
Astronomical Twilight 4:18 AM EDT 10:34 PM EDT
Moon 6:36 AM EDT (8/1) 9:25 PM EDT (8/1)
Length of Visible Light 15h 29m
Length of Day
14h 25m
New Moon, 0% of the Moon is Illuminated
Aug 1
New Moon
Aug 7
First Quarter
Aug 15
Full
Aug 23
Last Quarter
Aug 30
New

Hourly Weather History & Observations

Time (EDT) Temp. Heat Index Dew Point Humidity Pressure Visibility Wind Dir Wind Speed Gust Speed Precip Events Conditions
12:51 AM 66.9 °F - 62.1 °F 84% 30.10 in 10.0 mi South 3.5 mph - N/A   Clear
1:51 AM 66.0 °F - 61.0 °F 84% 30.11 in 10.0 mi South 3.5 mph - N/A   Clear
2:51 AM 64.9 °F - 61.0 °F 87% 30.11 in 10.0 mi Calm Calm - N/A   Mostly Cloudy
3:51 AM 64.9 °F - 60.1 °F 84% 30.11 in 10.0 mi Calm Calm - N/A   Mostly Cloudy
4:51 AM 64.9 °F - 60.1 °F 84% 30.11 in 10.0 mi SSE 3.5 mph - N/A   Overcast
5:51 AM 64.9 °F - 60.1 °F 84% 30.11 in 10.0 mi South 3.5 mph - N/A   Partly Cloudy
6:51 AM 64.9 °F - 60.1 °F 84% 30.12 in 10.0 mi Calm Calm - N/A   Clear
7:51 AM 69.1 °F - 62.1 °F 78% 30.13 in 10.0 mi Calm Calm - N/A   Mostly Cloudy
8:51 AM 75.0 °F - 59.0 °F 57% 30.14 in 10.0 mi East 4.6 mph - N/A   Clear
9:51 AM 77.0 °F - 62.1 °F 60% 30.15 in 10.0 mi North 5.8 mph - N/A   Clear
10:51 AM 78.1 °F - 59.0 °F 52% 30.16 in 10.0 mi NNE 8.1 mph - N/A   Partly Cloudy
11:51 AM 80.1 °F 80.9 °F 60.1 °F 50% 30.16 in 10.0 mi NE 8.1 mph - N/A   Clear
12:51 PM 80.1 °F 81.1 °F 61.0 °F 52% 30.16 in 10.0 mi NNE 10.4 mph - N/A   Clear
1:51 PM 80.1 °F 81.2 °F 62.1 °F 54% 30.17 in 10.0 mi North 10.4 mph - N/A   Clear
2:51 PM 81.0 °F 81.9 °F 62.1 °F 52% 30.15 in 10.0 mi North 10.4 mph - N/A   Partly Cloudy
3:51 PM 81.0 °F 81.6 °F 60.1 °F 49% 30.14 in 10.0 mi North 10.4 mph - N/A   Clear
4:51 PM 80.1 °F 81.1 °F 61.0 °F 52% 30.13 in 10.0 mi North 10.4 mph - N/A   Clear
5:51 PM 80.1 °F 80.9 °F 60.1 °F 50% 30.11 in 10.0 mi NE 8.1 mph - N/A   Clear
6:51 PM 79.0 °F - 55.0 °F 44% 30.11 in 10.0 mi NE 8.1 mph - N/A   Clear
7:51 PM 78.1 °F - 54.0 °F 43% 30.11 in 10.0 mi NE 6.9 mph - N/A   Clear
8:51 PM 75.9 °F - 55.9 °F 50% 30.11 in 10.0 mi NNE 6.9 mph - N/A   Clear
9:51 PM 73.0 °F - 57.9 °F 59% 30.12 in 10.0 mi NE 3.5 mph - N/A   Clear
10:51 PM 70.0 °F - 57.9 °F 65% 30.13 in 10.0 mi Calm Calm - N/A   Clear
11:51 PM 70.0 °F - 59.0 °F 68% 30.13 in 10.0 mi East 4.6 mph - N/A   Clear